Terminal Aerodrome Forecast
Issued by NWS

Home | Current Version | Previous Version | Text Only | Print | Product List | Glossary On
Versions: 1 2 3 4 5 6 7 8 9 10 11 12 13 14
000
FTUS42 KMLB 041727
TAFFPR
TAF
KFPR 041727Z 0418/0518 13010KT P6SM VCTS SCT023CB BKN080
      TEMPO 0418/0419 3SM TSRA BKN020CB OVC040
     FM042000 12010KT P6SM SCT035 BKN060
     FM050000 14005KT P6SM SCT040 OVC100
     FM050400 18003KT P6SM SCT120 BKN250=

USA.gov is the U.S. government's official web portal to all federal, state and local government web resources and services.